STARLINK-4441 (53510 NORAD) Tracking and Keplerian Element Data

This shows tracking and keplerian element data for the satellite.

Feedback or suggestion? Click here.




ElementValue
Catalog53510
NameSTARLINK-4441
Epoch Orbit1552
Epoch Day325.25451284
Epoch Year2022
RAAN84.3153
Inclination97.6543
Eccentricity0.0001992
Argument of Perigee18.0502
Mean Anonmoly342.0792
Mean Motion15.01268532
Decay Rate9.98E-06
L11 53510U 22099AX 22325.25451284 .00000998 00000+0 82290-4 0 9991
L22 53510 97.6543 84.3153 0001992 18.0502 342.0792 15.01268532 15524



Live tracking and technical data element details for STARLINK-4441 (NORAD 53510). STARLINK-4441 can be tracked NOW for your location showing map with azimuth and elevation plus other details from your city location.







IsCatalogInMostPopularTable: catalog: 53510, numindb: 2
Update: records affected: 1



GetName: 53510 STARLINK-4441

Hit Count: updated at: Thu, 08 Dec 2022 18:49:13 GMT